TimeMST,TemperatureF,Dew PointF,Humidity,Sea Level PressureIn,VisibilityMPH,Wind Direction,Wind SpeedMPH,Gust SpeedMPH,PrecipitationIn,Events,Conditions,WindDirDegrees,DateUTC
12:15 AM,17.2,5.0,59,30.37,10.0,West,11.5,-,N/A,,Clear,280,2013-12-26 07:15:00
12:35 AM,17.1,4.6,58,30.36,10.0,NW,10.4,-,N/A,,Clear,310,2013-12-26 07:35:00
12:55 AM,18.7,4.1,53,30.36,10.0,NW,8.1,16.1,N/A,,Clear,310,2013-12-26 07:55:00
1:15 AM,18.7,4.1,53,30.36,10.0,NW,9.2,-,N/A,,Clear,310,2013-12-26 08:15:00
1:35 AM,16.7,4.1,58,30.36,10.0,WNW,6.9,-,N/A,,Clear,300,2013-12-26 08:35:00
1:55 AM,17.6,3.4,54,30.36,10.0,SE,3.5,-,N/A,,Clear,130,2013-12-26 08:55:00
2:15 AM,14.0,4.1,65,30.36,10.0,East,4.6,-,N/A,,Clear,90,2013-12-26 09:15:00
2:35 AM,12.0,3.6,69,30.37,10.0,Calm,Calm,-,N/A,,Clear,0,2013-12-26 09:35:00
2:55 AM,13.5,3.2,64,30.36,10.0,NE,3.5,-,N/A,,Clear,40,2013-12-26 09:55:00
3:15 AM,16.2,3.0,56,30.36,10.0,ESE,3.5,-,N/A,,Clear,110,2013-12-26 10:15:00
3:35 AM,14.9,2.3,57,30.36,10.0,Calm,Calm,-,N/A,,Clear,0,2013-12-26 10:35:00
3:55 AM,14.5,3.0,60,30.35,10.0,East,3.5,-,N/A,,Clear,90,2013-12-26 10:55:00
4:15 AM,12.4,2.3,64,30.35,10.0,South,3.5,-,N/A,,Clear,190,2013-12-26 11:15:00
4:35 AM,12.6,1.9,63,30.35,10.0,SSW,3.5,-,N/A,,Clear,210,2013-12-26 11:35:00
4:55 AM,11.8,1.4,63,30.35,10.0,Calm,Calm,-,N/A,,Clear,0,2013-12-26 11:55:00
5:15 AM,11.1,0.5,62,30.35,7.0,Calm,Calm,-,N/A,,Clear,0,2013-12-26 12:15:00
5:35 AM,10.0,-0.4,63,30.34,10.0,Calm,Calm,-,N/A,,Clear,0,2013-12-26 12:35:00
5:55 AM,9.7,0.9,68,30.34,10.0,Calm,Calm,-,N/A,,Clear,0,2013-12-26 12:55:00
6:15 AM,12.6,0.7,59,30.35,10.0,Calm,Calm,-,N/A,,Clear,0,2013-12-26 13:15:00
6:35 AM,10.2,0.5,65,30.34,10.0,Calm,Calm,-,N/A,,Clear,0,2013-12-26 13:35:00
6:55 AM,11.1,-0.6,59,30.36,7.0,Calm,Calm,-,N/A,,Clear,0,2013-12-26 13:55:00
7:15 AM,9.3,1.0,69,30.35,10.0,Calm,Calm,-,N/A,,Clear,0,2013-12-26 14:15:00
7:35 AM,8.8,-1.1,64,30.35,10.0,Calm,Calm,-,N/A,,Clear,0,2013-12-26 14:35:00
7:55 AM,11.1,0.3,62,30.36,10.0,Calm,Calm,-,N/A,,Clear,0,2013-12-26 14:55:00
8:15 AM,15.3,1.6,55,30.36,10.0,Calm,Calm,-,N/A,,Clear,0,2013-12-26 15:15:00
8:35 AM,15.1,3.7,61,30.36,10.0,SE,4.6,-,N/A,,Clear,140,2013-12-26 15:35:00
8:55 AM,17.2,5.9,61,30.37,10.0,Calm,Calm,-,N/A,,Clear,0,2013-12-26 15:55:00
9:15 AM,16.9,3.9,57,30.38,10.0,Calm,Calm,-,N/A,,Clear,0,2013-12-26 16:15:00
9:35 AM,19.0,6.8,59,30.38,10.0,Calm,Calm,-,N/A,,Clear,0,2013-12-26 16:35:00
9:55 AM,26.2,6.3,43,30.36,10.0,WNW,13.8,-,N/A,,Clear,290,2013-12-26 16:55:00
10:15 AM,27.7,7.2,42,30.36,10.0,NW,15.0,-,N/A,,Clear,310,2013-12-26 17:15:00
10:35 AM,30.9,6.3,35,30.35,10.0,NW,11.5,21.9,N/A,,Clear,310,2013-12-26 17:35:00
10:55 AM,29.7,7.5,39,30.34,10.0,NW,12.7,-,N/A,,Scattered Clouds,320,2013-12-26 17:55:00
11:15 AM,36.3,8.1,31,30.30,10.0,NW,19.6,26.5,N/A,,Scattered Clouds,320,2013-12-26 18:15:00
11:35 AM,38.7,8.1,28,30.31,10.0,NNW,15.0,23.0,N/A,,Clear,330,2013-12-26 18:35:00
11:55 AM,40.5,9.9,29,30.31,10.0,NW,9.2,24.2,N/A,,Clear,320,2013-12-26 18:55:00
12:15 PM,41.2,12.2,31,30.30,10.0,NW,15.0,24.2,N/A,,Clear,320,2013-12-26 19:15:00
12:35 PM,41.2,11.7,30,30.29,10.0,NW,15.0,24.2,N/A,,Clear,310,2013-12-26 19:35:00
12:55 PM,41.7,12.2,30,30.28,10.0,NW,16.1,-,N/A,,Clear,310,2013-12-26 19:55:00
1:15 PM,41.9,12.9,31,30.28,10.0,NW,12.7,-,N/A,,Clear,310,2013-12-26 20:15:00
1:35 PM,41.9,12.9,31,30.27,10.0,NW,13.8,19.6,N/A,,Clear,320,2013-12-26 20:35:00
1:55 PM,41.9,14.7,33,30.27,10.0,NW,12.7,18.4,N/A,,Clear,310,2013-12-26 20:55:00
2:15 PM,42.1,14.5,33,30.27,10.0,NW,18.4,23.0,N/A,,Clear,310,2013-12-26 21:15:00
2:35 PM,41.9,14.4,33,30.28,10.0,NW,12.7,26.5,N/A,,Clear,320,2013-12-26 21:35:00
2:55 PM,41.4,15.1,35,30.28,10.0,NNW,17.3,21.9,N/A,,Clear,330,2013-12-26 21:55:00
3:15 PM,41.0,14.9,35,30.28,10.0,NW,11.5,20.7,N/A,,Clear,320,2013-12-26 22:15:00
3:35 PM,41.0,15.6,36,30.28,10.0,NW,15.0,-,N/A,,Clear,320,2013-12-26 22:35:00
3:55 PM,39.7,15.6,38,30.28,10.0,NW,18.4,24.2,N/A,,Clear,320,2013-12-26 22:55:00
4:15 PM,38.8,14.4,37,30.28,10.0,NNW,21.9,29.9,N/A,,Clear,330,2013-12-26 23:15:00
4:35 PM,37.4,15.3,41,30.29,10.0,NW,17.3,25.3,N/A,,Clear,320,2013-12-26 23:35:00
4:55 PM,36.7,15.3,42,30.29,10.0,NW,18.4,23.0,N/A,,Clear,310,2013-12-26 23:55:00
5:15 PM,35.6,15.8,44,30.31,10.0,NW,16.1,24.2,N/A,,Clear,310,2013-12-27 00:15:00
5:35 PM,34.3,16.0,47,30.31,10.0,NW,13.8,19.6,N/A,,Clear,320,2013-12-27 00:35:00
5:55 PM,33.6,15.4,47,30.31,10.0,NW,13.8,19.6,N/A,,Clear,310,2013-12-27 00:55:00
6:15 PM,33.3,14.7,47,30.32,10.0,NW,13.8,-,N/A,,Clear,320,2013-12-27 01:15:00
6:35 PM,32.7,15.1,48,30.32,10.0,NW,13.8,-,N/A,,Clear,320,2013-12-27 01:35:00
6:55 PM,32.4,14.7,48,30.33,10.0,NW,16.1,-,N/A,,Clear,320,2013-12-27 01:55:00
7:15 PM,31.8,14.9,50,30.34,10.0,NW,9.2,17.3,N/A,,Clear,310,2013-12-27 02:15:00
7:35 PM,30.6,14.9,52,30.35,10.0,WNW,11.5,-,N/A,,Clear,290,2013-12-27 02:35:00
7:55 PM,29.3,14.7,55,30.35,10.0,WNW,11.5,-,N/A,,Clear,300,2013-12-27 02:55:00
8:15 PM,30.6,14.4,51,30.35,10.0,WNW,15.0,20.7,N/A,,Clear,300,2013-12-27 03:15:00
8:35 PM,29.5,14.4,53,30.35,10.0,WNW,16.1,-,N/A,,Clear,300,2013-12-27 03:35:00
8:55 PM,30.9,14.0,50,30.35,10.0,NW,15.0,24.2,N/A,,Clear,320,2013-12-27 03:55:00
9:15 PM,30.6,13.8,50,30.35,10.0,NW,19.6,26.5,N/A,,Clear,320,2013-12-27 04:15:00
9:35 PM,28.0,13.6,55,30.36,10.0,WNW,15.0,-,N/A,,Clear,300,2013-12-27 04:35:00
9:55 PM,27.5,12.7,54,30.37,10.0,NW,13.8,19.6,N/A,,Clear,310,2013-12-27 04:55:00
10:15 PM,27.3,12.6,54,30.38,10.0,WNW,8.1,11.5,N/A,,Clear,300,2013-12-27 05:15:00
10:35 PM,26.6,12.6,55,30.38,10.0,WNW,6.9,-,N/A,,Clear,290,2013-12-27 05:35:00
10:55 PM,26.6,12.2,55,30.38,10.0,NNW,6.9,-,N/A,,Clear,330,2013-12-27 05:55:00
11:15 PM,26.2,12.2,55,30.38,10.0,WNW,10.4,-,N/A,,Clear,300,2013-12-27 06:15:00
11:35 PM,26.6,12.2,55,30.38,10.0,NW,10.4,17.3,N/A,,Clear,310,2013-12-27 06:35:00
11:55 PM,19.0,10.0,68,30.38,10.0,West,6.9,-,N/A,,Clear,260,2013-12-27 06:55:00